EZY57LF EGMC-LTBS

Flight info

Callsign EZY57LF
Flight time N/A
Altitude 37000
Route DET L6 DVR UL9 KONAN UL607 REMBA LIRSU VIBOM NOMBO RIDAR RADIZ LUMUS KUSIB VABEK UL603 OLOTA RUGAS RIKSO UP14 ODNOD UT491 SONUP
Aircraft A320/M-S/L

Departure

Time N/A
Airport London Southend Airport (EGMC)

Arrival

Time 2026-04-27 11:43
Airport Dalaman International Airport (LTBS)
Time Latitude Longitude Altitude Speed Heading
2026-04-27 10:52 40.21894 24.46546 37250 ft 472 kts 133°
2026-04-27 10:53 40.15325 24.56156 37241 ft 472 kts 133°
2026-04-27 10:54 40.10970 24.62511 37236 ft 472 kts 133°
2026-04-27 10:54 40.06585 24.68902 37231 ft 472 kts 133°
2026-04-27 10:55 40.02200 24.75286 37228 ft 472 kts 133°
2026-04-27 10:55 39.97807 24.81666 37227 ft 473 kts 133°
2026-04-27 10:56 39.93410 24.88031 37223 ft 472 kts 133°
2026-04-27 10:56 39.89006 24.94392 37220 ft 472 kts 134°
2026-04-27 10:57 39.84604 25.00743 37217 ft 472 kts 133°
2026-04-27 10:57 39.80201 25.07091 37211 ft 472 kts 134°
2026-04-27 10:58 39.75792 25.13425 37207 ft 472 kts 134°
2026-04-27 10:58 39.71377 25.19753 37203 ft 473 kts 134°
2026-04-27 10:59 39.66984 25.26033 37201 ft 473 kts 134°
2026-04-27 10:59 39.62550 25.32356 37186 ft 474 kts 134°
2026-04-27 11:00 39.55891 25.41828 37177 ft 474 kts 134°
2026-04-27 11:00 39.52199 25.47077 37172 ft 474 kts 134°
2026-04-27 11:01 39.47755 25.53387 37168 ft 474 kts 134°
2026-04-27 11:01 39.43310 25.59681 37167 ft 474 kts 134°
2026-04-27 11:02 39.38859 25.65958 37168 ft 473 kts 134°
2026-04-27 11:02 39.34415 25.72235 37165 ft 473 kts 134°
2026-04-27 11:03 39.29968 25.78486 37158 ft 472 kts 134°
2026-04-27 11:03 39.25529 25.84724 37151 ft 472 kts 134°
2026-04-27 11:04 39.21078 25.90956 37146 ft 472 kts 134°
2026-04-27 11:04 39.16625 25.97171 37143 ft 472 kts 134°
2026-04-27 11:05 39.12177 26.03373 37142 ft 471 kts 134°
2026-04-27 11:05 39.07723 26.09571 37141 ft 471 kts 134°
2026-04-27 11:06 39.03265 26.15768 37140 ft 472 kts 134°
2026-04-27 11:06 38.98836 26.21920 37140 ft 472 kts 134°
2026-04-27 11:07 38.94493 26.28257 37138 ft 472 kts 130°
2026-04-27 11:07 38.90388 26.34838 37141 ft 472 kts 129°
2026-04-27 11:08 38.86303 26.41438 37139 ft 472 kts 130°
2026-04-27 11:08 38.82167 26.47982 37138 ft 472 kts 130°
2026-04-27 11:09 38.77996 26.54476 37131 ft 471 kts 130°
2026-04-27 11:09 38.73824 26.60959 37126 ft 471 kts 130°
2026-04-27 11:10 38.69687 26.67398 37118 ft 471 kts 130°
2026-04-27 11:10 38.65524 26.73873 37110 ft 471 kts 130°
2026-04-27 11:11 38.61360 26.80342 37106 ft 471 kts 130°
2026-04-27 11:11 38.57203 26.86803 37097 ft 470 kts 130°
2026-04-27 11:12 38.53039 26.93251 37083 ft 470 kts 130°
2026-04-27 11:12 38.48868 26.99673 37069 ft 470 kts 130°
2026-04-27 11:13 38.44690 27.06093 37063 ft 470 kts 130°
2026-04-27 11:13 38.40513 27.12508 37055 ft 470 kts 130°
2026-04-27 11:14 38.36327 27.18922 37056 ft 470 kts 130°
2026-04-27 11:14 38.32140 27.25315 37057 ft 470 kts 131°
2026-04-27 11:15 38.27942 27.31705 37057 ft 470 kts 131°
2026-04-27 11:15 38.23750 27.38095 37051 ft 470 kts 131°
2026-04-27 11:16 38.19565 27.44476 37053 ft 470 kts 131°
2026-04-27 11:16 38.15394 27.50806 37049 ft 470 kts 131°
2026-04-27 11:17 38.11192 27.57162 37050 ft 470 kts 131°
2026-04-27 11:17 38.06989 27.63514 37045 ft 470 kts 131°
2026-04-27 11:18 38.02782 27.69870 37020 ft 470 kts 131°
2026-04-27 11:18 37.98575 27.76205 37013 ft 470 kts 131°
2026-04-27 11:19 37.94351 27.82551 37002 ft 471 kts 131°
2026-04-27 11:19 37.90121 27.88889 36996 ft 471 kts 131°
2026-04-27 11:20 37.85882 27.95225 36998 ft 471 kts 131°
2026-04-27 11:20 37.81646 28.01557 37000 ft 472 kts 131°
2026-04-27 11:21 37.77407 28.07895 36905 ft 471 kts 131°
2026-04-27 11:21 37.75289 28.11053 36252 ft 471 kts 131°
2026-04-27 11:21 37.73169 28.14206 35549 ft 471 kts 131°
2026-04-27 11:22 37.71046 28.17355 34851 ft 471 kts 131°
2026-04-27 11:22 37.68920 28.20503 34160 ft 471 kts 131°
2026-04-27 11:22 37.66791 28.23657 33371 ft 472 kts 131°
2026-04-27 11:22 37.64665 28.26810 32544 ft 472 kts 131°
2026-04-27 11:23 37.62531 28.29976 31655 ft 474 kts 130°
2026-04-27 11:23 37.60417 28.33108 30757 ft 476 kts 130°
2026-04-27 11:23 37.58232 28.36337 29791 ft 479 kts 130°
2026-04-27 11:23 37.56094 28.39491 28737 ft 480 kts 130°
2026-04-27 11:24 37.53922 28.42689 27662 ft 481 kts 130°
2026-04-27 11:24 37.51683 28.45825 26781 ft 479 kts 136°
2026-04-27 11:24 37.49125 28.48454 26086 ft 472 kts 146°
2026-04-27 11:24 37.46279 28.50457 25370 ft 466 kts 156°
2026-04-27 11:25 37.43237 28.51782 24659 ft 461 kts 166°
2026-04-27 11:25 37.40144 28.52738 23958 ft 456 kts 166°
2026-04-27 11:25 37.37069 28.53694 23227 ft 453 kts 166°
2026-04-27 11:25 37.34027 28.54642 22479 ft 448 kts 166°
2026-04-27 11:26 37.31020 28.55579 21822 ft 443 kts 166°
2026-04-27 11:26 37.28081 28.56497 21649 ft 427 kts 166°
2026-04-27 11:26 37.25257 28.57378 21521 ft 411 kts 166°
2026-04-27 11:26 37.22531 28.58227 21386 ft 396 kts 166°
2026-04-27 11:27 37.19900 28.59046 21247 ft 383 kts 166°
2026-04-27 11:27 37.17358 28.59834 21117 ft 370 kts 166°
2026-04-27 11:27 37.14977 28.60895 20990 ft 358 kts 148°
2026-04-27 11:27 37.13198 28.62948 20859 ft 344 kts 122°
2026-04-27 11:28 37.12300 28.65651 20612 ft 333 kts 97°
2026-04-27 11:28 37.12350 28.68506 20243 ft 327 kts 78°
2026-04-27 11:28 37.12751 28.71309 19870 ft 327 kts 78°
2026-04-27 11:28 37.13156 28.74105 19527 ft 325 kts 78°
2026-04-27 11:29 37.13557 28.76886 19213 ft 324 kts 78°
2026-04-27 11:29 37.13954 28.79653 18905 ft 322 kts 78°
2026-04-27 11:29 37.14345 28.82409 18590 ft 320 kts 78°
2026-04-27 11:29 37.14728 28.85147 18280 ft 319 kts 78°
2026-04-27 11:30 37.15108 28.87881 17927 ft 317 kts 79°
2026-04-27 11:30 37.15483 28.90594 17587 ft 315 kts 79°
2026-04-27 11:30 37.15536 28.93330 17267 ft 315 kts 97°
2026-04-27 11:30 37.14903 28.95941 16942 ft 315 kts 116°
2026-04-27 11:31 37.13645 28.98170 16629 ft 314 kts 135°
2026-04-27 11:31 37.12030 29.00009 16287 ft 314 kts 138°
2026-04-27 11:31 37.10405 29.01822 15959 ft 312 kts 137°
2026-04-27 11:31 37.08779 29.03613 15647 ft 311 kts 141°
2026-04-27 11:32 37.06857 29.04781 15311 ft 306 kts 171°
2026-04-27 11:32 37.04769 29.04625 14687 ft 304 kts 201°
2026-04-27 11:32 37.02963 29.03265 13951 ft 306 kts 220°
2026-04-27 11:32 37.01378 29.01452 13132 ft 310 kts 226°
2026-04-27 11:33 36.99886 28.99491 12347 ft 312 kts 228°
2026-04-27 11:33 36.98430 28.97526 11806 ft 304 kts 227°
2026-04-27 11:33 36.96994 28.95638 11371 ft 295 kts 226°
2026-04-27 11:33 36.95574 28.93839 10950 ft 287 kts 225°
2026-04-27 11:34 36.94173 28.92114 10530 ft 279 kts 225°
2026-04-27 11:34 36.92818 28.90422 10123 ft 272 kts 225°
2026-04-27 11:34 36.91504 28.88759 9708 ft 266 kts 225°
2026-04-27 11:34 36.90220 28.87129 9394 ft 262 kts 225°
2026-04-27 11:35 36.88948 28.85513 9110 ft 264 kts 226°
2026-04-27 11:35 36.87886 28.83677 8829 ft 260 kts 248°
2026-04-27 11:35 36.87569 28.81493 8545 ft 256 kts 274°
2026-04-27 11:35 36.88030 28.79384 8264 ft 251 kts 300°
2026-04-27 11:36 36.89135 28.77746 7989 ft 246 kts 324°
2026-04-27 11:36 36.90650 28.76851 7798 ft 238 kts 348°
2026-04-27 11:36 36.92266 28.76791 7672 ft 230 kts 11°
2026-04-27 11:36 36.93738 28.77502 7545 ft 228 kts 34°
2026-04-27 11:37 36.94946 28.78775 7428 ft 228 kts 44°
2026-04-27 11:37 36.96068 28.80177 7261 ft 228 kts 46°
2026-04-27 11:37 36.97164 28.81606 7092 ft 228 kts 46°
2026-04-27 11:37 36.98083 28.83200 6910 ft 227 kts 67°
2026-04-27 11:38 36.98319 28.85137 6654 ft 228 kts 101°
2026-04-27 11:38 36.97589 28.86840 6377 ft 226 kts 140°
2026-04-27 11:38 36.96176 28.87595 6114 ft 224 kts 180°
2026-04-27 11:38 36.94653 28.87273 5826 ft 224 kts 197°
2026-04-27 11:39 36.93139 28.86727 5426 ft 230 kts 197°
2026-04-27 11:39 36.91584 28.86179 5024 ft 232 kts 197°
2026-04-27 11:39 36.90034 28.85646 4625 ft 230 kts 197°
2026-04-27 11:39 36.88495 28.85119 4226 ft 229 kts 196°
2026-04-27 11:40 36.86963 28.84595 3832 ft 228 kts 197°
2026-04-27 11:40 36.85440 28.84073 3448 ft 226 kts 196°
2026-04-27 11:40 36.83956 28.83565 3062 ft 217 kts 197°
2026-04-27 11:40 36.82537 28.83080 2697 ft 202 kts 197°
2026-04-27 11:41 36.81220 28.82631 2318 ft 192 kts 197°
2026-04-27 11:41 36.79980 28.82207 2102 ft 174 kts 196°
2026-04-27 11:41 36.78827 28.81816 1715 ft 175 kts 198°
2026-04-27 11:41 36.77694 28.81428 1454 ft 164 kts 197°
2026-04-27 11:42 36.76595 28.81052 1126 ft 161 kts 195°
2026-04-27 11:42 36.75588 28.80701 907 ft 145 kts 195°
2026-04-27 11:42 36.74639 28.80379 619 ft 138 kts 194°
2026-04-27 11:42 36.73737 28.80074 366 ft 132 kts 194°
2026-04-27 11:43 36.72876 28.79784 123 ft 127 kts 195°
2026-04-27 11:43 36.72047 28.79497 25 ft 103 kts 195°
2026-04-27 11:43 36.71625 28.79353 25 ft 37 kts 195°
2026-04-27 11:43 36.71381 28.79273 24 ft 36 kts 194°